Total_Precipitation_Accumulation
0.00 0.00 0.00 0.03 0.03 0.05 0.05 0.07 0.06 0.06 0.07 0.08 0.08 0.08 0.07 0.09 0.09 0.09 0.13 0.09 0.09 0.08 0.08 0.07 0.07 0.08 0.10 0.13 0.13 0.13 0.12 0.14 0.13 0.13 0.12 0.08 0.06 0.06 0.06 0.06 0.06 0.05 0.06 0.06 0.06 0.10 0.13 0.25 0.25 0.38 0.49 0.55 0.56 0.56 0.41 0.32 0.32 0.25 0.20 0.15 0.15 0.11 0.03 0.03 0.03 0.04 0.16 0.13 0.05 0.05 0.02 0.01 0.01 0.01 0.01 0.01 0.00 0.00 0.00 0.00 0.00 0.00 0.00 0.00 0.00 0.00
0.00 0.00 0.00 0.03 0.03 0.05 0.05 0.07 0.07 0.07 0.07 0.13 0.10 0.10 0.07 0.09 0.11 0.11 0.16 0.17 0.17 0.12 0.09 0.06 0.06 0.08 0.10 0.14 0.14 0.14 0.15 0.16 0.15 0.15 0.13 0.08 0.07 0.07 0.06 0.05 0.05 0.04 0.05 0.05 0.05 0.11 0.15 0.31 0.31 0.40 0.54 0.60 0.61 0.61 0.53 0.40 0.40 0.32 0.25 0.13 0.13 0.07 0.02 0.02 0.02 0.08 0.15 0.11 0.08 0.08 0.05 0.03 0.02 0.02 0.01 0.01 0.00 0.00 0.00 0.00 0.00 0.00 0.00 0.00 0.00 0.00
0.00 0.00 0.00 0.01 0.01 0.05 0.06 0.06 0.09 0.09 0.09 0.11 0.14 0.14 0.07 0.08 0.11 0.11 0.18 0.19 0.19 0.15 0.12 0.08 0.08 0.09 0.12 0.12 0.15 0.15 0.15 0.14 0.14 0.14 0.13 0.12 0.07 0.07 0.07 0.07 0.07 0.06 0.05 0.08 0.08 0.08 0.12 0.19 0.19 0.34 0.56 0.60 0.59 0.59 0.51 0.39 0.39 0.30 0.24 0.19 0.19 0.16 0.10 0.04 0.04 0.15 0.15 0.10 0.06 0.06 0.04 0.02 0.01 0.01 0.01 0.00 0.00 0.00 0.00 0.00 0.00 0.00 -0.00 -0.00 -0.00 0.00
0.01 0.00 0.00 0.00 0.00 0.00 0.04 0.03 0.08 0.08 0.13 0.13 0.17 0.17 0.12 0.09 0.11 0.11 0.18 0.20 0.20 0.14 0.11 0.08 0.08 0.09 0.12 0.12 0.15 0.15 0.13 0.12 0.11 0.11 0.13 0.11 0.09 0.09 0.08 0.08 0.08 0.07 0.06 0.08 0.08 0.12 0.15 0.22 0.22 0.32 0.43 0.51 0.56 0.56 0.47 0.44 0.44 0.33 0.25 0.19 0.19 0.15 0.14 0.09 0.09 0.15 0.18 0.13 0.05 0.05 0.02 0.00 0.01 0.01 0.00 0.00 0.00 0.00 0.00 0.00 0.00 0.00 -0.00 0.00 0.00 0.00
0.01 0.00 0.00 0.00 0.00 0.00 0.03 0.07 0.06 0.06 0.10 0.18 0.19 0.19 0.13 0.08 0.07 0.07 0.10 0.17 0.17 0.14 0.12 0.11 0.11 0.11 0.13 0.13 0.14 0.14 0.14 0.14 0.11 0.11 0.12 0.11 0.10 0.10 0.08 0.08 0.08 0.08 0.08 0.09 0.09 0.14 0.15 0.23 0.23 0.31 0.38 0.42 0.47 0.47 0.42 0.46 0.46 0.38 0.29 0.24 0.24 0.15 0.13 0.08 0.08 0.11 0.12 0.08 0.01 0.01 0.00 0.00 0.00 0.00 0.00 0.01 0.00 0.00 0.00 0.00 0.00 0.00 0.00 0.00 0.00 0.00
0.01 0.00 0.00 0.00 0.00 0.01 0.06 0.08 0.08 0.08 0.09 0.19 0.20 0.20 0.12 0.07 0.04 0.04 0.12 0.19 0.19 0.17 0.15 0.15 0.15 0.13 0.12 0.13 0.13 0.13 0.14 0.12 0.13 0.13 0.10 0.10 0.09 0.09 0.09 0.09 0.09 0.08 0.09 0.11 0.11 0.14 0.15 0.21 0.21 0.24 0.36 0.37 0.39 0.39 0.33 0.38 0.38 0.36 0.26 0.24 0.24 0.24 0.19 0.10 0.10 0.06 0.05 0.02 0.01 0.01 0.00 0.02 0.01 0.01 0.01 0.01 0.00 0.00 0.00 0.00 0.00 0.00 0.00 0.00 0.00 0.00
0.01 0.01 0.00 0.00 0.00 0.04 0.06 0.06 0.11 0.11 0.17 0.24 0.29 0.29 0.12 0.06 0.04 0.04 0.12 0.19 0.19 0.17 0.16 0.18 0.18 0.15 0.14 0.13 0.12 0.12 0.12 0.12 0.12 0.12 0.11 0.10 0.12 0.12 0.10 0.09 0.09 0.09 0.09 0.13 0.13 0.17 0.19 0.22 0.22 0.25 0.30 0.33 0.32 0.32 0.27 0.27 0.27 0.30 0.26 0.23 0.23 0.22 0.18 0.10 0.10 0.04 0.05 0.04 0.02 0.02 0.01 0.03 0.02 0.02 0.02 0.03 0.01 0.01 0.00 0.00 0.00 0.00 0.00 0.00 0.00 0.00
0.01 0.01 0.01 0.02 0.02 0.05 0.12 0.12 0.22 0.22 0.20 0.18 0.16 0.16 0.16 0.18 0.21 0.21 0.19 0.20 0.20 0.14 0.20 0.22 0.22 0.20 0.21 0.19 0.17 0.17 0.12 0.07 0.07 0.07 0.08 0.07 0.10 0.10 0.12 0.10 0.10 0.09 0.09 0.13 0.13 0.17 0.20 0.22 0.22 0.25 0.28 0.31 0.29 0.29 0.23 0.18 0.18 0.16 0.12 0.16 0.16 0.20 0.15 0.10 0.10 0.05 0.03 0.01 0.02 0.02 0.01 0.01 0.01 0.01 0.00 0.00 0.00 0.00 0.00 0.00 0.00 0.00 0.00 0.00 0.00 0.00
0.02 0.01 0.01 0.01 0.01 0.02 0.13 0.13 0.18 0.18 0.25 0.28 0.16 0.16 0.13 0.16 0.23 0.23 0.28 0.27 0.27 0.18 0.18 0.18 0.18 0.21 0.20 0.16 0.12 0.12 0.10 0.06 0.05 0.05 0.06 0.05 0.05 0.05 0.07 0.09 0.09 0.10 0.11 0.13 0.13 0.19 0.18 0.18 0.18 0.21 0.27 0.25 0.25 0.25 0.20 0.18 0.18 0.17 0.09 0.11 0.11 0.16 0.11 0.07 0.07 0.03 0.02 0.02 0.01 0.01 0.01 0.01 0.01 0.01 0.01 0.00 0.00 0.00 0.00 0.00 0.00 0.00 0.00 0.00 0.00 0.00
0.04 0.02 0.02 0.02 0.02 0.01 0.06 0.06 0.19 0.19 0.25 0.28 0.32 0.32 0.21 0.15 0.18 0.18 0.25 0.26 0.26 0.21 0.19 0.16 0.16 0.16 0.15 0.17 0.14 0.14 0.09 0.06 0.04 0.04 0.04 0.04 0.04 0.04 0.06 0.08 0.08 0.09 0.09 0.11 0.11 0.15 0.17 0.16 0.16 0.17 0.23 0.18 0.18 0.18 0.15 0.15 0.15 0.17 0.11 0.07 0.07 0.07 0.04 0.06 0.06 0.03 0.02 0.02 0.01 0.01 0.01 0.01 0.00 0.00 0.00 0.00 0.00 0.00 0.00 0.00 0.00 0.00 0.00 0.00 0.00 0.00
0.08 0.04 0.05 0.03 0.03 0.04 0.04 0.05 0.12 0.12 0.21 0.28 0.40 0.40 0.35 0.19 0.19 0.19 0.15 0.25 0.25 0.23 0.21 0.15 0.15 0.14 0.10 0.13 0.13 0.13 0.10 0.08 0.07 0.07 0.06 0.07 0.05 0.05 0.06 0.10 0.10 0.10 0.10 0.12 0.12 0.15 0.16 0.15 0.15 0.14 0.14 0.14 0.15 0.15 0.12 0.13 0.13 0.12 0.12 0.07 0.07 0.04 0.02 0.03 0.03 0.03 0.00 0.01 0.00 0.00 0.00 0.01 0.00 0.00 0.00 0.00 0.00 0.00 0.00 0.00 0.00 0.00 0.00 0.00 0.00 0.00
0.10 0.11 0.08 0.04 0.04 0.04 0.10 0.17 0.12 0.12 0.19 0.29 0.40 0.40 0.42 0.34 0.35 0.35 0.17 0.13 0.13 0.18 0.16 0.17 0.17 0.11 0.10 0.09 0.10 0.10 0.08 0.07 0.07 0.07 0.08 0.07 0.06 0.06 0.07 0.10 0.10 0.11 0.11 0.14 0.14 0.16 0.14 0.13 0.13 0.13 0.12 0.12 0.12 0.12 0.12 0.09 0.09 0.09 0.07 0.10 0.10 0.06 0.02 0.01 0.01 0.03 0.01 0.00 0.01 0.01 0.00 0.00 0.00 0.00 0.00 0.00 0.00 0.00 0.00 0.00 0.00 0.00 0.00 0.00 0.00 0.00
0.11 0.12 0.09 0.06 0.06 0.04 0.09 0.16 0.19 0.19 0.18 0.14 0.24 0.24 0.36 0.43 0.38 0.38 0.28 0.14 0.14 0.13 0.14 0.19 0.19 0.17 0.13 0.10 0.08 0.08 0.08 0.10 0.07 0.07 0.07 0.08 0.07 0.07 0.07 0.08 0.08 0.10 0.11 0.10 0.10 0.12 0.15 0.15 0.15 0.15 0.14 0.11 0.09 0.09 0.09 0.07 0.07 0.07 0.04 0.06 0.06 0.09 0.07 0.04 0.04 0.01 0.00 0.01 0.01 0.01 0.00 0.00 0.00 0.00 0.00 0.00 0.00 0.00 0.00 0.00 0.00 0.00 0.00 0.00 0.00 0.00
0.18 0.19 0.14 0.08 0.08 0.07 0.13 0.13 0.12 0.12 0.13 0.11 0.10 0.10 0.14 0.23 0.34 0.34 0.39 0.28 0.28 0.15 0.18 0.18 0.18 0.15 0.13 0.13 0.11 0.11 0.09 0.09 0.14 0.14 0.09 0.11 0.07 0.07 0.06 0.08 0.08 0.10 0.10 0.11 0.11 0.12 0.13 0.12 0.12 0.14 0.14 0.09 0.08 0.08 0.06 0.05 0.05 0.05 0.04 0.04 0.04 0.06 0.06 0.04 0.04 0.02 0.02 0.01 0.01 0.01 0.01 0.01 0.01 0.01 0.00 0.00 0.00 0.00 0.00 0.00 0.00 0.00 0.00 0.00 0.00 0.00
0.21 0.23 0.20 0.19 0.19 0.12 0.16 0.15 0.09 0.09 0.08 0.10 0.11 0.11 0.17 0.19 0.34 0.34 0.39 0.45 0.45 0.24 0.21 0.19 0.19 0.14 0.11 0.10 0.09 0.09 0.11 0.14 0.14 0.14 0.14 0.15 0.10 0.10 0.07 0.09 0.09 0.11 0.10 0.11 0.11 0.13 0.11 0.10 0.10 0.11 0.11 0.07 0.06 0.06 0.06 0.04 0.04 0.04 0.03 0.03 0.03 0.03 0.03 0.04 0.04 0.02 0.03 0.02 0.02 0.02 0.01 0.00 0.00 0.00 0.00 0.00 0.00 0.00 0.00 0.00 0.00 0.00 0.00 0.00 0.00 0.00
0.30 0.26 0.23 0.24 0.24 0.17 0.18 0.19 0.19 0.19 0.08 0.15 0.13 0.13 0.19 0.25 0.37 0.37 0.43 0.49 0.49 0.49 0.26 0.21 0.21 0.24 0.13 0.09 0.07 0.07 0.07 0.13 0.14 0.14 0.15 0.17 0.10 0.10 0.06 0.07 0.07 0.11 0.12 0.12 0.12 0.13 0.10 0.09 0.09 0.09 0.08 0.06 0.04 0.04 0.04 0.03 0.03 0.04 0.03 0.02 0.02 0.02 0.02 0.03 0.03 0.04 0.05 0.05 0.04 0.04 0.02 0.01 0.00 0.00 0.00 0.00 0.00 0.00 0.00 0.00 0.00 0.00 0.00 0.00 0.00 0.00
0.34 0.37 0.32 0.34 0.34 0.27 0.36 0.39 0.31 0.31 0.21 0.24 0.22 0.22 0.18 0.26 0.41 0.41 0.53 0.53 0.53 0.47 0.19 0.12 0.12 0.20 0.15 0.17 0.11 0.11 0.06 0.09 0.11 0.11 0.15 0.16 0.11 0.11 0.05 0.07 0.07 0.11 0.11 0.10 0.10 0.11 0.09 0.09 0.09 0.10 0.08 0.06 0.04 0.04 0.04 0.03 0.03 0.03 0.03 0.02 0.02 0.02 0.01 0.02 0.02 0.03 0.05 0.04 0.03 0.03 0.03 0.02 0.01 0.01 0.00 0.00 0.00 0.00 0.00 0.00 0.00 0.00 0.00 0.00 0.00 0.00
0.43 0.44 0.42 0.38 0.38 0.36 0.31 0.34 0.41 0.41 0.32 0.38 0.27 0.27 0.23 0.24 0.35 0.35 0.50 0.61 0.61 0.44 0.16 0.07 0.07 0.09 0.07 0.14 0.14 0.14 0.09 0.07 0.07 0.07 0.12 0.15 0.17 0.17 0.05 0.07 0.07 0.09 0.11 0.11 0.11 0.10 0.08 0.08 0.08 0.07 0.07 0.05 0.04 0.04 0.03 0.02 0.02 0.02 0.02 0.02 0.02 0.02 0.01 0.02 0.02 0.01 0.02 0.06 0.03 0.03 0.03 0.02 0.01 0.01 0.00 0.01 0.00 0.00 0.00 0.00 0.00 0.00 0.00 0.00 0.00 0.00
0.42 0.44 0.37 0.32 0.32 0.31 0.27 0.32 0.40 0.40 0.46 0.46 0.35 0.35 0.39 0.41 0.45 0.45 0.41 0.52 0.52 0.65 0.42 0.05 0.05 0.03 0.03 0.07 0.13 0.13 0.10 0.06 0.07 0.07 0.13 0.17 0.18 0.18 0.12 0.08 0.08 0.09 0.11 0.12 0.12 0.11 0.09 0.08 0.08 0.07 0.05 0.05 0.04 0.04 0.03 0.02 0.02 0.02 0.02 0.01 0.01 0.01 0.01 0.02 0.02 0.02 0.02 0.03 0.06 0.06 0.04 0.05 0.03 0.03 0.02 0.00 0.00 0.00 0.00 0.00 0.00 0.00 0.00 0.00 0.00 0.00
0.42 0.48 0.38 0.25 0.25 0.21 0.19 0.22 0.26 0.26 0.43 0.42 0.42 0.42 0.41 0.47 0.58 0.58 0.50 0.53 0.53 0.61 0.41 0.18 0.18 0.03 0.01 0.01 0.13 0.13 0.10 0.09 0.10 0.10 0.11 0.17 0.16 0.16 0.12 0.10 0.10 0.11 0.14 0.11 0.11 0.09 0.08 0.06 0.06 0.07 0.08 0.06 0.05 0.05 0.04 0.03 0.03 0.02 0.02 0.01 0.01 0.01 0.01 0.01 0.01 0.02 0.03 0.03 0.04 0.04 0.04 0.05 0.04 0.04 0.02 0.01 0.00 0.00 0.00 0.00 0.00 0.00 0.00 0.00 0.00 0.00
0.41 0.51 0.44 0.27 0.27 0.20 0.20 0.19 0.24 0.24 0.26 0.31 0.40 0.40 0.39 0.52 0.59 0.59 0.57 0.61 0.61 0.50 0.35 0.18 0.18 0.03 0.00 0.01 0.06 0.06 0.12 0.14 0.15 0.15 0.11 0.17 0.15 0.15 0.15 0.15 0.15 0.12 0.13 0.11 0.11 0.07 0.06 0.06 0.06 0.07 0.07 0.05 0.05 0.05 0.04 0.03 0.03 0.02 0.02 0.01 0.01 0.02 0.01 0.01 0.01 0.02 0.02 0.02 0.03 0.03 0.04 0.04 0.04 0.04 0.03 0.02 0.01 0.01 0.00 0.00 0.00 0.00 0.00 0.00 0.00 0.00
0.39 0.56 0.52 0.32 0.32 0.26 0.24 0.19 0.21 0.21 0.24 0.30 0.37 0.37 0.45 0.52 0.70 0.70 0.66 0.59 0.59 0.52 0.35 0.20 0.20 0.04 0.01 0.01 0.04 0.04 0.10 0.11 0.15 0.15 0.14 0.21 0.23 0.23 0.17 0.17 0.17 0.16 0.16 0.18 0.18 0.11 0.06 0.06 0.06 0.06 0.05 0.03 0.03 0.03 0.03 0.02 0.02 0.03 0.03 0.02 0.02 0.01 0.01 0.01 0.01 0.01 0.01 0.02 0.02 0.02 0.02 0.03 0.04 0.04 0.03 0.02 0.01 0.01 0.00 0.00 0.00 0.00 0.00 0.00 0.00 0.00
0.33 0.42 0.56 0.59 0.59 0.32 0.32 0.23 0.19 0.19 0.23 0.30 0.34 0.34 0.41 0.72 0.80 0.80 0.81 0.77 0.77 0.50 0.45 0.34 0.34 0.21 0.02 0.02 0.03 0.03 0.05 0.08 0.15 0.15 0.21 0.24 0.30 0.30 0.24 0.21 0.21 0.20 0.20 0.21 0.21 0.15 0.09 0.10 0.10 0.09 0.05 0.03 0.02 0.02 0.03 0.02 0.02 0.02 0.02 0.02 0.02 0.01 0.01 0.01 0.01 0.01 0.02 0.01 0.02 0.02 0.02 0.03 0.03 0.03 0.02 0.02 0.01 0.01 0.00 0.00 0.00 0.00 0.00 0.00 0.00 0.00
0.26 0.34 0.48 0.59 0.59 0.54 0.52 0.39 0.27 0.27 0.26 0.34 0.37 0.37 0.38 0.50 0.58 0.58 0.85 0.69 0.69 0.42 0.35 0.28 0.28 0.22 0.16 0.07 0.05 0.05 0.05 0.06 0.07 0.07 0.15 0.32 0.36 0.36 0.28 0.23 0.23 0.29 0.27 0.26 0.26 0.17 0.12 0.18 0.18 0.11 0.06 0.03 0.02 0.02 0.03 0.02 0.02 0.03 0.02 0.02 0.02 0.01 0.01 0.01 0.01 0.02 0.02 0.02 0.02 0.02 0.01 0.01 0.02 0.02 0.01 0.02 0.00 0.00 0.01 0.00 0.00 0.00 0.00 0.00 0.00 0.00
0.31 0.31 0.43 0.58 0.58 0.65 0.64 0.48 0.33 0.33 0.30 0.37 0.42 0.42 0.43 0.38 0.53 0.53 0.57 0.52 0.52 0.47 0.37 0.32 0.32 0.26 0.25 0.12 0.07 0.07 0.05 0.05 0.06 0.06 0.09 0.19 0.40 0.40 0.43 0.24 0.24 0.21 0.39 0.48 0.48 0.29 0.19 0.22 0.22 0.17 0.08 0.05 0.02 0.02 0.02 0.01 0.01 0.02 0.02 0.01 0.01 0.01 0.01 0.01 0.01 0.01 0.01 0.01 0.01 0.01 0.00 0.00 0.00 0.00 0.00 0.00 0.00 0.00 0.00 0.00 0.00 0.00 0.00 0.00 0.00 0.00
0.35 0.28 0.36 0.53 0.53 0.68 0.67 0.56 0.40 0.40 0.36 0.42 0.48 0.48 0.52 0.56 0.72 0.72 0.84 0.73 0.73 0.81 0.54 0.38 0.38 0.32 0.25 0.15 0.09 0.09 0.06 0.03 0.04 0.04 0.06 0.18 0.44 0.44 0.43 0.29 0.29 0.24 0.41 0.44 0.44 0.32 0.20 0.22 0.22 0.21 0.21 0.18 0.06 0.06 0.02 0.00 0.00 0.00 0.01 0.00 0.00 0.01 0.01 0.00 0.00 0.01 0.00 0.00 0.01 0.01 0.00 0.00 0.00 0.00 0.00 0.00 0.00 0.00 0.00 0.00 0.00 0.00 0.00 0.00 0.00 0.00
0.35 0.34 0.23 0.38 0.38 0.56 0.62 0.64 0.46 0.46 0.39 0.46 0.51 0.51 0.54 0.61 0.76 0.76 1.01 1.00 1.00 0.95 0.69 0.59 0.59 0.46 0.40 0.21 0.12 0.12 0.12 0.05 0.05 0.05 0.04 0.15 0.33 0.33 0.37 0.28 0.28 0.33 0.41 0.41 0.41 0.36 0.30 0.29 0.29 0.23 0.22 0.18 0.08 0.08 0.02 0.00 0.00 0.00 0.00 0.00 0.00 0.01 0.00 0.00 0.00 0.00 0.00 0.00 0.00 0.00 0.00 0.00 0.00 0.00 0.00 0.00 0.00 0.00 0.00 0.00 0.00 0.00 0.00 0.00 0.00 0.00
0.26 0.27 0.23 0.20 0.20 0.21 0.39 0.57 0.79 0.79 0.48 0.50 0.51 0.51 0.54 0.61 0.69 0.69 0.90 1.07 1.07 1.01 0.63 0.54 0.54 0.52 0.39 0.23 0.15 0.15 0.13 0.09 0.06 0.06 0.05 0.06 0.11 0.11 0.23 0.18 0.18 0.22 0.36 0.58 0.58 0.46 0.32 0.31 0.31 0.25 0.22 0.17 0.09 0.09 0.02 0.01 0.01 0.00 0.00 0.00 0.00 0.00 0.00 0.00 0.00 0.00 0.00 0.00 0.00 0.00 0.00 0.00 0.00 0.00 0.00 0.00 0.00 0.00 0.00 0.00 0.00 0.00 0.00 0.00 0.00 0.00
0.19 0.21 0.19 0.15 0.15 0.17 0.33 0.50 0.73 0.73 0.79 0.66 0.54 0.54 0.51 0.56 0.62 0.62 0.75 1.00 1.00 0.86 0.61 0.50 0.50 0.46 0.34 0.26 0.19 0.19 0.16 0.11 0.09 0.09 0.06 0.06 0.10 0.10 0.17 0.11 0.11 0.12 0.32 0.55 0.55 0.50 0.33 0.36 0.36 0.35 0.28 0.19 0.15 0.15 0.10 0.04 0.04 0.01 0.01 0.00 0.00 0.00 0.00 0.00 0.00 0.00 0.00 0.00 0.00 0.00 0.00 0.00 0.00 0.00 0.00 0.00 0.00 0.00 0.00 0.00 0.00 0.00 0.00 0.00 0.00 0.00
0.16 0.18 0.17 0.15 0.15 0.16 0.26 0.49 0.68 0.68 0.90 0.79 0.58 0.58 0.51 0.56 0.59 0.59 0.63 0.73 0.73 0.71 0.77 0.74 0.74 0.60 0.46 0.33 0.25 0.25 0.21 0.15 0.12 0.12 0.09 0.09 0.11 0.11 0.12 0.06 0.06 0.07 0.24 0.42 0.42 0.54 0.47 0.49 0.49 0.40 0.28 0.16 0.13 0.13 0.10 0.06 0.06 0.02 0.01 0.00 0.00 0.00 0.00 0.00 0.00 0.00 0.00 0.00 0.00 0.00 0.00 0.00 0.00 0.00 0.00 0.00 0.00 0.00 0.00 0.00 0.00 0.00 0.00 0.00 0.00 0.00
0.14 0.17 0.22 0.16 0.16 0.17 0.20 0.44 0.63 0.63 0.75 0.86 0.63 0.63 0.55 0.60 0.64 0.64 0.70 0.72 0.72 0.70 0.88 0.84 0.84 0.70 0.50 0.44 0.47 0.47 0.46 0.34 0.19 0.19 0.13 0.09 0.11 0.11 0.11 0.08 0.08 0.04 0.04 0.06 0.06 0.24 0.51 0.46 0.46 0.36 0.25 0.16 0.11 0.11 0.09 0.06 0.06 0.04 0.01 0.00 0.00 0.00 0.00 0.00 0.00 0.00 0.00 0.00 0.00 0.00 0.00 0.00 0.00 0.00 0.00 0.00 0.00 0.00 0.00 0.00 0.00 0.00 0.00 0.00 0.00 0.00
0.08 0.11 0.14 0.18 0.18 0.17 0.18 0.18 0.29 0.29 0.41 0.58 0.79 0.79 0.71 0.61 0.60 0.60 0.68 0.76 0.76 0.78 0.87 0.89 0.89 0.74 0.65 0.44 0.36 0.36 0.41 0.38 0.23 0.23 0.12 0.12 0.11 0.11 0.08 0.06 0.06 0.06 0.06 0.06 0.06 0.05 0.12 0.15 0.15 0.21 0.23 0.17 0.18 0.18 0.14 0.09 0.09 0.07 0.06 0.05 0.05 0.03 0.01 0.00 0.00 0.00 0.00 0.00 0.00 0.00 0.00 0.00 0.00 0.00 0.00 0.00 0.00 0.00 0.00 0.00 0.00 0.00 0.00 0.00 0.00 0.00
0.08 0.10 0.12 0.15 0.15 0.17 0.17 0.18 0.24 0.24 0.36 0.53 0.76 0.76 0.73 0.62 0.60 0.60 0.62 0.78 0.78 0.79 0.75 0.75 0.75 0.83 0.65 0.59 0.47 0.47 0.48 0.44 0.37 0.37 0.25 0.21 0.17 0.17 0.16 0.11 0.11 0.08 0.09 0.09 0.09 0.06 0.07 0.10 0.10 0.14 0.15 0.17 0.14 0.14 0.11 0.06 0.06 0.06 0.06 0.05 0.05 0.05 0.04 0.02 0.02 0.01 0.00 0.00 0.00 0.00 0.00 0.00 0.00 0.00 0.00 0.00 0.00 0.00 0.00 0.00 0.00 0.00 0.00 0.00 0.00 0.00
0.08 0.09 0.12 0.15 0.15 0.17 0.18 0.19 0.20 0.20 0.30 0.47 0.69 0.69 0.77 0.63 0.59 0.59 0.60 0.72 0.72 0.71 0.69 0.63 0.63 0.65 0.58 0.54 0.53 0.53 0.57 0.48 0.40 0.40 0.29 0.26 0.21 0.21 0.17 0.13 0.13 0.10 0.12 0.11 0.11 0.11 0.10 0.10 0.10 0.10 0.11 0.11 0.10 0.10 0.09 0.08 0.08 0.06 0.05 0.05 0.05 0.05 0.04 0.03 0.03 0.02 0.00 0.00 0.00 0.00 0.00 0.00 0.00 0.00 0.00 0.00 0.00 0.00 0.00 0.00 0.00 0.00 0.00 0.00 0.00 0.00
0.05 0.06 0.08 0.11 0.11 0.13 0.16 0.19 0.20 0.20 0.26 0.42 0.61 0.61 0.72 0.62 0.58 0.58 0.59 0.65 0.65 0.66 0.64 0.59 0.59 0.55 0.51 0.52 0.56 0.56 0.57 0.52 0.44 0.44 0.32 0.28 0.24 0.24 0.19 0.17 0.17 0.13 0.13 0.09 0.09 0.10 0.13 0.10 0.10 0.09 0.10 0.11 0.09 0.09 0.07 0.07 0.07 0.06 0.06 0.05 0.05 0.04 0.04 0.02 0.02 0.02 0.01 0.00 0.00 0.00 0.00 -0.00 0.00 0.00 0.00 0.00 0.00 0.00 0.00 0.00 0.00 0.00 0.00 0.00 0.00 0.00
0.04 0.05 0.07 0.10 0.10 0.12 0.15 0.18 0.20 0.20 0.20 0.22 0.34 0.34 0.51 0.53 0.58 0.58 0.55 0.54 0.54 0.54 0.61 0.64 0.64 0.59 0.57 0.53 0.51 0.51 0.53 0.50 0.42 0.42 0.34 0.28 0.25 0.25 0.23 0.19 0.19 0.16 0.12 0.10 0.10 0.08 0.11 0.12 0.12 0.09 0.08 0.08 0.09 0.09 0.09 0.06 0.06 0.03 0.05 0.05 0.05 0.04 0.04 0.03 0.03 0.02 0.01 0.00 0.00 0.00 0.00 0.00 0.00 0.00 0.00 0.00 0.00 0.00 0.00 0.00 0.00 0.00 0.00 0.00 0.00 0.00
0.03 0.04 0.06 0.08 0.08 0.09 0.13 0.15 0.18 0.18 0.19 0.21 0.27 0.27 0.40 0.45 0.53 0.53 0.51 0.51 0.51 0.48 0.54 0.60 0.60 0.60 0.59 0.53 0.53 0.53 0.55 0.52 0.48 0.48 0.39 0.35 0.28 0.28 0.23 0.22 0.22 0.20 0.15 0.12 0.12 0.10 0.08 0.09 0.09 0.10 0.09 0.08 0.08 0.08 0.09 0.05 0.05 0.03 0.03 0.04 0.04 0.04 0.04 0.02 0.02 0.01 0.01 0.00 0.00 0.00 -0.00 0.00 0.00 0.00 0.00 0.00 0.00 0.00 0.00 0.00 0.00 0.00 0.00 0.00 0.00 0.00
0.02 0.03 0.04 0.06 0.06 0.08 0.11 0.14 0.17 0.17 0.18 0.21 0.24 0.24 0.32 0.35 0.46 0.46 0.47 0.46 0.46 0.43 0.48 0.53 0.53 0.57 0.55 0.58 0.59 0.59 0.59 0.54 0.49 0.49 0.42 0.39 0.29 0.29 0.23 0.23 0.23 0.19 0.14 0.10 0.10 0.09 0.09 0.09 0.09 0.10 0.09 0.07 0.07 0.07 0.07 0.05 0.05 0.03 0.02 0.02 0.02 0.02 0.03 0.01 0.01 0.01 0.00 0.00 0.00 0.00 0.00 0.00 0.00 0.00 0.00 0.00 0.00 0.00 0.00 0.00 0.00 0.00 0.00 0.00 0.00 0.00
0.01 0.01 0.02 0.04 0.04 0.04 0.07 0.13 0.15 0.15 0.14 0.17 0.19 0.19 0.24 0.24 0.36 0.36 0.41 0.41 0.41 0.37 0.43 0.48 0.48 0.54 0.50 0.52 0.57 0.57 0.54 0.56 0.54 0.54 0.49 0.41 0.30 0.30 0.24 0.24 0.24 0.20 0.15 0.12 0.12 0.09 0.08 0.09 0.09 0.08 0.08 0.09 0.08 0.08 0.07 0.06 0.06 0.05 0.04 0.02 0.02 0.02 0.01 0.01 0.01 0.01 0.01 0.01 0.00 0.00 0.00 0.00 0.00 0.00 0.00 0.00 0.00 0.00 0.00 0.00 0.00 0.00 0.00 0.00 0.00 0.00
0.01 0.01 0.01 0.01 0.01 0.03 0.05 0.08 0.10 0.10 0.08 0.10 0.12 0.12 0.14 0.15 0.20 0.20 0.29 0.34 0.34 0.29 0.30 0.34 0.34 0.39 0.38 0.42 0.47 0.47 0.43 0.51 0.58 0.58 0.58 0.55 0.43 0.43 0.32 0.26 0.26 0.22 0.20 0.18 0.18 0.15 0.12 0.09 0.09 0.09 0.07 0.07 0.07 0.07 0.08 0.06 0.06 0.05 0.04 0.04 0.04 0.02 0.00 0.00 0.00 0.00 0.00 0.00 0.00 0.00 0.00 0.00 0.00 0.00 0.00 0.00 0.00 0.00 0.00 0.00 0.00 0.00 0.00 0.00 0.00 0.00
0.00 0.01 0.01 0.01 0.01 0.01 0.02 0.04 0.06 0.06 0.06 0.08 0.11 0.11 0.13 0.15 0.20 0.20 0.27 0.30 0.30 0.30 0.28 0.30 0.30 0.33 0.35 0.36 0.38 0.38 0.36 0.45 0.54 0.54 0.59 0.52 0.44 0.44 0.35 0.27 0.27 0.22 0.19 0.17 0.17 0.16 0.14 0.11 0.11 0.10 0.08 0.06 0.06 0.06 0.06 0.06 0.06 0.04 0.04 0.04 0.04 0.02 0.01 0.00 0.00 0.00 0.00 0.00 0.00 0.00 0.00 0.00 0.00 0.00 0.00 0.00 0.00 0.00 0.00 0.00 0.00 0.00 0.00 0.00 0.00 0.00
0.00 0.00 0.01 0.01 0.01 0.01 0.02 0.02 0.04 0.04 0.04 0.06 0.10 0.10 0.13 0.12 0.17 0.17 0.24 0.31 0.31 0.31 0.28 0.29 0.29 0.33 0.35 0.37 0.33 0.33 0.32 0.36 0.44 0.44 0.50 0.43 0.39 0.39 0.33 0.26 0.26 0.20 0.17 0.17 0.17 0.16 0.13 0.11 0.11 0.10 0.10 0.08 0.08 0.08 0.09 0.07 0.07 0.05 0.04 0.04 0.04 0.03 0.02 0.01 0.01 0.00 0.00 0.00 0.00 0.00 0.00 0.00 0.00 0.00 0.00 0.00 0.00 0.00 0.00 0.00 0.00 0.00 0.00 0.00 0.00 0.00
0.00 0.00 0.00 0.00 0.00 0.01 0.01 0.02 0.03 0.03 0.04 0.05 0.07 0.07 0.10 0.09 0.12 0.12 0.19 0.29 0.29 0.28 0.27 0.27 0.27 0.27 0.25 0.30 0.36 0.36 0.33 0.31 0.32 0.32 0.35 0.33 0.38 0.38 0.34 0.28 0.28 0.24 0.18 0.15 0.15 0.14 0.13 0.12 0.12 0.10 0.09 0.08 0.08 0.08 0.09 0.08 0.08 0.06 0.04 0.03 0.03 0.03 0.02 0.01 0.01 0.00 0.00 0.00 0.00 0.00 0.00 0.00 0.00 0.00 0.00 0.00 0.00 0.00 0.00 0.00 0.00 0.00 0.00 0.00 0.00 0.00
0.00 0.00 0.00 0.00 0.00 0.00 0.00 0.01 0.02 0.02 0.02 0.03 0.04 0.04 0.05 0.05 0.07 0.07 0.10 0.15 0.15 0.18 0.25 0.25 0.25 0.24 0.22 0.24 0.29 0.29 0.28 0.30 0.28 0.28 0.29 0.29 0.33 0.33 0.33 0.28 0.28 0.22 0.16 0.13 0.13 0.12 0.12 0.11 0.11 0.11 0.10 0.09 0.09 0.09 0.09 0.08 0.08 0.06 0.04 0.03 0.03 0.03 0.03 0.02 0.02 0.01 0.00 0.00 0.00 0.00 0.00 0.00 0.00 0.00 0.00 0.00 0.00 0.00 0.00 0.00 0.00 0.00 0.00 0.00 0.00 0.00
0.00 0.00 0.00 0.00 0.00 0.00 0.01 0.01 0.01 0.01 0.02 0.03 0.03 0.03 0.04 0.04 0.06 0.06 0.09 0.12 0.12 0.15 0.22 0.26 0.26 0.24 0.25 0.24 0.25 0.25 0.23 0.26 0.26 0.26 0.26 0.27 0.30 0.30 0.32 0.28 0.28 0.22 0.15 0.12 0.12 0.10 0.11 0.12 0.12 0.11 0.11 0.10 0.10 0.10 0.10 0.10 0.10 0.08 0.06 0.04 0.04 0.03 0.02 0.01 0.01 0.01 0.00 0.00 0.00 0.00 0.00 0.00 0.00 0.00 0.00 0.00 0.00 0.00 0.00 0.00 0.00 0.00 0.00 0.00 0.00 0.00
0.00 0.00 0.00 0.00 0.00 0.00 0.01 0.01 0.01 0.01 0.01 0.02 0.02 0.02 0.03 0.03 0.05 0.05 0.07 0.10 0.10 0.13 0.18 0.25 0.25 0.26 0.26 0.23 0.22 0.22 0.20 0.22 0.24 0.24 0.24 0.24 0.26 0.26 0.27 0.26 0.26 0.25 0.21 0.16 0.16 0.13 0.09 0.09 0.09 0.08 0.10 0.10 0.11 0.11 0.11 0.10 0.10 0.07 0.05 0.04 0.04 0.02 0.01 0.01 0.01 0.00 0.00 0.00 0.00 0.00 0.00 0.00 0.00 0.00 0.00 0.00 0.00 0.00 0.00 0.00 0.00 0.00 0.00 0.00 0.00 0.00
0.00 0.00 0.00 0.00 0.00 0.00 0.00 0.01 0.01 0.01 0.01 0.02 0.02 0.02 0.02 0.02 0.03 0.03 0.04 0.06 0.06 0.07 0.11 0.14 0.14 0.18 0.24 0.23 0.21 0.21 0.19 0.19 0.20 0.20 0.21 0.20 0.23 0.23 0.25 0.23 0.23 0.21 0.18 0.16 0.16 0.11 0.10 0.08 0.08 0.07 0.08 0.09 0.11 0.11 0.10 0.08 0.08 0.05 0.05 0.05 0.05 0.02 0.01 0.01 0.01 0.01 0.01 0.01 0.00 0.00 0.00 0.00 0.00 0.00 0.00 0.00 0.00 0.00 0.00 0.00 0.00 0.00 0.00 0.00 0.00 0.00
0.00 0.00 0.00 0.00 0.00 0.00 0.00 0.00 0.01 0.01 0.01 0.01 0.01 0.01 0.02 0.02 0.03 0.03 0.04 0.05 0.05 0.07 0.09 0.13 0.13 0.16 0.21 0.22 0.19 0.19 0.17 0.17 0.17 0.17 0.18 0.16 0.19 0.19 0.21 0.18 0.18 0.17 0.14 0.12 0.12 0.08 0.08 0.08 0.08 0.07 0.07 0.06 0.06 0.06 0.08 0.08 0.08 0.05 0.05 0.04 0.04 0.02 0.01 0.01 0.01 0.01 0.00 0.00 0.00 0.00 0.00 0.00 0.00 0.00 0.00 0.00 0.00 0.00 0.00 0.00 0.00 0.00 0.00 0.00 0.00 0.00
0.00 0.00 0.00 0.00 0.00 0.00 0.00 0.00 0.00 0.00 0.01 0.01 0.01 0.01 0.01 0.02 0.02 0.02 0.04 0.05 0.05 0.06 0.09 0.12 0.12 0.13 0.17 0.21 0.18 0.18 0.14 0.13 0.14 0.14 0.15 0.13 0.15 0.15 0.15 0.14 0.14 0.14 0.13 0.11 0.11 0.07 0.05 0.05 0.05 0.04 0.05 0.06 0.05 0.05 0.05 0.05 0.05 0.04 0.05 0.03 0.03 0.02 0.01 0.01 0.01 0.00 0.00 0.00 0.00 0.00 0.00 0.00 0.00 0.00 0.00 0.00 0.00 0.00 0.00 0.00 0.00 0.00 0.00 0.00 0.00 0.00
0.00 0.00 0.00 0.00 0.00 0.00 0.00 0.00 0.00 0.00 0.01 0.01 0.01 0.01 0.01 0.01 0.02 0.02 0.03 0.04 0.04 0.06 0.08 0.11 0.11 0.11 0.11 0.14 0.18 0.18 0.17 0.15 0.12 0.12 0.11 0.09 0.10 0.10 0.12 0.11 0.11 0.12 0.11 0.09 0.09 0.06 0.05 0.04 0.04 0.03 0.04 0.05 0.03 0.03 0.04 0.03 0.03 0.03 0.03 0.04 0.04 0.02 0.02 0.01 0.01 0.00 0.00 0.00 0.00 0.00 0.00 0.00 0.00 0.00 0.00 0.00 0.00 0.00 0.00 0.00 0.00 0.00 0.00 0.00 0.00 0.00
0.00 0.00 0.00 0.00 0.00 0.00 0.00 0.00 0.00 0.00 0.00 0.01 0.01 0.01 0.01 0.01 0.01 0.01 0.02 0.02 0.02 0.03 0.05 0.07 0.07 0.07 0.10 0.12 0.15 0.15 0.14 0.14 0.12 0.12 0.10 0.08 0.08 0.08 0.09 0.08 0.08 0.09 0.09 0.08 0.08 0.06 0.05 0.05 0.05 0.04 0.04 0.02 0.02 0.02 0.02 0.03 0.03 0.02 0.02 0.03 0.03 0.01 0.01 0.01 0.01 0.00 0.00 0.00 0.00 0.00 0.00 0.00 0.00 0.00 0.00 0.00 0.00 0.00 0.00 0.00 0.00 0.00 0.00 0.00 0.00 0.00